Waarnemingen

Advertentie
Mijn weer
Arkona, Duitsland (10091): temperatuur & dauwpunt: 16.01.2017 13:00:00 - 22.01.2017 13:00:00 (CET)Arkona, Duitsland (10091): temperatuur 5cm & temperatuur -5cm: 16.01.2017 13:00:00 - 22.01.2017 13:00:00 (CET)Arkona, Duitsland (10091): temperatuur -20cm & temperatuur -100cm: 16.01.2017 13:00:00 - 22.01.2017 13:00:00 (CET)Arkona, Duitsland (10091): windsnelheid & windstoten: 16.01.2017 13:00:00 - 22.01.2017 13:00:00 (CET)Arkona, Duitsland (10091): windrichting: 16.01.2017 13:00:00 - 22.01.2017 13:00:00 (CET)Arkona, Duitsland (10091): luchtdruk: 16.01.2017 13:00:00 - 22.01.2017 13:00:00 (CET)Arkona, Duitsland (10091): zicht: 16.01.2017 13:00:00 - 22.01.2017 13:00:00 (CET)Arkona, Duitsland (10091): Zonneschijnduur: 16.01.2017 13:00:00 - 22.01.2017 13:00:00 (CET)Arkona, Duitsland (10091): neerslag: 16.01.2017 13:00:00 - 22.01.2017 13:00:00 (CET)
Datum & Tijd tt [°C] td [°C] tt 5cm [°C] tt -5cm [°C] tt -20cm [°C] tt -100cm [°C] ff [km/u] ff [kn] fx [km/u] fx [kn] dd ppp [hPa] vv [km] sd [min] rr [mm]
22.01.2017 13:00:00 - - - - - - - - - - - - - - -
22.01.2017 12:00:00 1,5 1,4 1,7 2,2 2,3 4,2 17 9 23 12 ZZW 1030,1 5 0 -
22.01.2017 11:00:00 1,5 1,4 1,6 2,1 2,2 4,2 16 9 20 11 ZZW 1030,5 3,5 0 -
22.01.2017 10:00:00 1,4 1,4 1,5 1,9 2,2 4,2 14 7 18 10 ZZW 1030,6 2,5 0 -
22.01.2017 09:00:00 1,4 1,4 1,5 1,9 2,2 4,2 12 7 16 9 ZZW 1030,6 0,2 0 0,0
22.01.2017 08:00:00 1,5 1,5 1,5 1,8 2,3 4,2 9 5 16 9 ZZW 1030,3 0,3 0 0,0
22.01.2017 07:00:00 1,5 1,5 1,5 1,8 2,3 4,2 14 7 17 9 ZZW 1030,4 0,9 0 0,0
22.01.2017 06:00:00 1,5 1,5 1,5 1,8 2,3 4,2 13 7 20 11 ZZW 1030,7 1,5 0 0,0
22.01.2017 05:00:00 1,6 1,6 1,6 1,8 2,3 4,2 14 8 17 9 ZZW 1031,0 5 0 0,0
22.01.2017 04:00:00 1,5 1,5 1,5 1,8 2,3 4,2 11 6 21 12 ZZW 1031,1 2,1 0 0,0
22.01.2017 03:00:00 1,2 1,2 1,2 1,8 2,3 4,2 16 9 22 12 ZW 1031,3 0,7 0 0,0
22.01.2017 02:00:00 1,1 1,1 1,2 1,8 2,4 4,2 12 7 20 11 ZW 1031,4 0,7 0 0,0
22.01.2017 01:00:00 1,0 1,0 1,1 1,9 2,4 4,2 13 7 20 11 ZW 1031,8 1,4 0 0,0
22.01.2017 00:00:00 1,0 1,0 1,1 1,9 2,5 4,2 14 8 23 12 ZW 1031,9 0,9 0 0,0
21.01.2017 23:00:00 1,1 1,1 1,2 2,0 2,5 4,2 16 9 22 12 WZW 1031,8 0,3 0 0,0
21.01.2017 22:00:00 1,1 1,1 1,2 2,1 2,6 4,2 13 7 22 12 WZW 1031,8 1,5 0 0,0
21.01.2017 21:00:00 1,3 1,3 1,4 2,3 2,6 4,2 14 7 18 10 ZW 1031,7 0,4 0 0,0
21.01.2017 20:00:00 1,8 1,8 1,9 2,4 2,6 4,2 12 7 16 9 WZW 1031,6 1,0 0 0,0
21.01.2017 19:00:00 1,7 1,7 1,8 2,5 2,7 4,2 12 7 20 11 WZW 1031,4 0,2 0 0,0
21.01.2017 18:00:00 1,9 1,9 1,9 2,7 2,7 4,2 12 7 19 10 ZW 1031,2 0,2 0 0,0
21.01.2017 17:00:00 1,8 1,8 1,9 2,9 2,7 4,2 13 7 19 11 WZW 1031,4 0,3 0 0,0
21.01.2017 16:00:00 2,0 2,0 2,2 3,3 2,6 4,2 13 7 18 10 WZW 1030,9 0,3 0 0,0
21.01.2017 15:00:00 2,2 2,2 2,6 3,4 2,5 4,2 11 6 19 10 WZW 1031,0 0,2 0 0,0
21.01.2017 14:00:00 2,3 2,3 2,7 3,5 2,4 4,2 8 5 27 14 WNW 1031,3 0,2 0 0,0
21.01.2017 13:00:00 2,1 2,1 2,5 3,3 2,3 4,2 18 10 26 14 W 1031,4 0,2 0 0,0
21.01.2017 12:00:00 2,4 2,4 2,7 3,1 2,2 4,2 18 10 25 13 W 1031,6 0,4 0 0,0
21.01.2017 11:00:00 2,4 2,4 2,7 2,7 2,2 4,2 17 9 23 12 W 1031,6 0,4 0 0,0
21.01.2017 10:00:00 2,2 2,2 2,3 2,4 2,1 4,2 17 9 26 14 W 1031,6 0,2 0 0,0
21.01.2017 09:00:00 2,3 2,3 2,3 2,3 2,1 4,2 21 11 28 15 W 1031,1 0,2 0 0,0
21.01.2017 08:00:00 2,6 2,6 2,5 2,3 2,1 4,2 20 11 31 17 W 1030,5 0,2 0 0,0
21.01.2017 07:00:00 2,6 2,6 2,6 2,2 2,1 4,2 22 12 29 16 W 1030,3 0,2 0 0,0
21.01.2017 06:00:00 2,5 2,5 2,4 2,1 2,0 4,2 20 11 31 17 WNW 1030,3 0,2 0 0,0
21.01.2017 05:00:00 2,1 2,1 2,1 2,1 2,0 4,2 24 13 31 17 W 1030,2 0,1 0 0,0
21.01.2017 04:00:00 2,5 2,5 2,4 2,0 2,0 4,2 24 13 32 17 WNW 1030,4 0,1 0 0,0
21.01.2017 03:00:00 2,9 2,7 2,4 1,8 2,1 4,2 23 13 32 17 W 1030,7 3,7 0 0,0
21.01.2017 02:00:00 2,9 2,7 2,3 1,9 2,1 4,2 26 14 35 19 W 1030,8 4,5 0 0,0
21.01.2017 01:00:00 3,2 2,8 2,7 2,3 2,1 4,2 27 15 39 21 W 1031,1 7 0 0,0
21.01.2017 00:00:00 3,3 2,8 3,0 2,4 2,1 4,2 31 17 42 23 W 1031,2 7 0 0,0
20.01.2017 23:00:00 3,2 2,7 2,6 2,4 2,0 4,2 32 18 45 24 W 1031,4 5 0 0,0
20.01.2017 22:00:00 3,6 2,8 3,5 2,6 2,0 4,2 36 19 49 26 W 1031,4 8 0 0,0
20.01.2017 21:00:00 3,8 2,9 3,6 2,5 1,9 4,2 39 21 50 27 W 1031,3 10 0 0,0
20.01.2017 20:00:00 3,8 2,8 3,5 2,2 1,9 4,2 41 22 56 30 W 1031,1 8 0 0,0
20.01.2017 19:00:00 3,7 2,6 3,0 2,0 1,9 4,2 40 21 55 30 W 1030,9 10 0 0,0
20.01.2017 18:00:00 3,8 2,9 3,0 2,2 1,9 4,2 42 23 56 30 W 1031,1 12 0 0,0
20.01.2017 17:00:00 4,0 2,9 3,2 2,5 1,9 4,2 47 25 55 30 W 1031,2 17 4 0,0
20.01.2017 16:00:00 4,1 3,1 3,5 3,1 1,7 4,2 45 24 57 31 W 1031,1 16 58 0,0
20.01.2017 15:00:00 4,6 3,2 4,8 3,6 1,5 4,2 46 25 56 30 W 1031,3 12 60 0,0
20.01.2017 14:00:00 4,7 3,2 5,2 3,7 1,2 4,2 47 25 56 30 W 1031,3 13 60 0,0
20.01.2017 13:00:00 5,1 3,2 5,8 3,2 0,9 4,2 41 22 54 29 W 1031,6 15 60 0,0
20.01.2017 12:00:00 4,9 3,3 5,4 2,2 0,7 4,2 42 23 55 30 W 1031,9 15 60 0,0
20.01.2017 11:00:00 4,6 3,2 4,9 1,2 0,6 4,2 42 23 54 29 W 1032,2 12 60 0,0
20.01.2017 10:00:00 4,0 3,2 3,8 0,6 0,6 4,2 41 22 53 29 W 1032,4 7 52 0,0
20.01.2017 09:00:00 3,5 3,0 2,8 0,3 0,6 4,2 41 22 51 27 W 1032,6 5 0 0,0
20.01.2017 08:00:00 3,4 3,1 2,7 0,3 0,5 4,2 35 19 46 25 W 1032,5 3,0 0 0,0
20.01.2017 07:00:00 3,1 3,1 3,0 0,3 0,5 4,2 32 18 43 23 W 1032,7 0,4 0 0,0
20.01.2017 06:00:00 3,2 3,2 3,0 0,1 0,5 4,2 34 18 47 25 W 1032,8 0,9 0 0,0
20.01.2017 05:00:00 3,2 3,2 3,1 0,0 0,5 4,2 37 20 49 26 W 1032,9 0,4 0 0,0
20.01.2017 04:00:00 3,1 3,1 3,0 0,0 0,5 4,2 35 19 47 25 W 1033,2 0,3 0 0,0
20.01.2017 03:00:00 2,7 2,7 2,5 0,0 0,5 4,2 36 19 52 28 W 1033,0 0,1 0 0,0
20.01.2017 02:00:00 2,9 2,9 2,7 0,0 0,5 4,2 38 20 50 27 W 1033,2 0,2 0 0,0
20.01.2017 01:00:00 2,8 2,7 2,7 0,0 0,5 4,2 40 21 51 27 W 1033,6 1,2 0 0,0
20.01.2017 00:00:00 2,6 2,6 2,5 0,0 0,5 4,2 34 19 46 25 W 1033,9 1,0 0 0,0
19.01.2017 23:00:00 2,5 2,5 2,3 0,0 0,5 4,2 32 18 43 23 W 1034,2 0,9 0 0,0
19.01.2017 22:00:00 2,2 2,2 2,1 0,0 0,5 4,2 34 18 46 25 W 1034,1 0,1 0 0,0
19.01.2017 21:00:00 2,1 2,1 1,8 0,0 0,5 4,2 38 21 47 26 W 1033,9 0,8 0 0,0
19.01.2017 20:00:00 2,2 2,2 2,0 0,0 0,5 4,2 36 20 49 26 W 1034,1 0,5 0 0,0
19.01.2017 19:00:00 2,1 2,1 1,9 0,0 0,5 4,2 37 20 46 25 W 1034,1 0,1 0 0,0
19.01.2017 18:00:00 2,0 2,0 1,9 0,0 0,5 4,2 35 19 44 24 W 1034,3 0,4 0 0,1
19.01.2017 17:00:00 2,0 2,0 1,8 0,0 0,5 4,2 32 18 46 25 W 1034,7 0,6 0 0,0
19.01.2017 16:00:00 1,8 1,8 1,6 -0,1 0,5 4,2 35 19 46 25 WZW 1034,4 0,3 0 0,0
19.01.2017 15:00:00 1,6 1,6 1,5 -0,1 0,5 4,2 34 18 48 26 W 1034,6 0,8 0 0,0
19.01.2017 14:00:00 1,2 1,2 1,2 -0,1 0,5 4,3 37 20 49 26 WZW 1034,8 1,2 0 0,0
19.01.2017 13:00:00 0,9 0,9 1,0 -0,1 0,4 4,3 36 19 48 26 WZW 1035,2 1,1 0 0,2
19.01.2017 12:00:00 0,8 0,8 0,9 0,0 0,4 4,3 34 18 46 25 WZW 1035,6 1,1 0 0,5
19.01.2017 11:00:00 1,0 1,0 1,0 -0,1 0,4 4,3 31 17 47 25 WZW 1035,6 1,0 0 0,3
19.01.2017 10:00:00 0,8 0,7 0,7 0,0 0,4 4,3 34 18 46 25 WZW 1036,0 1,4 0 0,2
19.01.2017 09:00:00 0,7 0,5 0,5 -0,1 0,4 4,3 38 20 46 25 WZW 1035,7 1,5 0 0,2
19.01.2017 08:00:00 0,5 0,3 0,3 -0,1 0,4 4,3 34 18 47 25 WZW 1035,5 2,5 0 0,2
19.01.2017 07:00:00 0,4 0,3 0,2 -0,1 0,4 4,3 38 20 52 28 WZW 1035,1 3,0 0 0,2
19.01.2017 06:00:00 0,4 0,3 0,3 -0,1 0,4 4,3 40 22 51 27 WZW 1035,2 1,5 0 0,1
19.01.2017 05:00:00 0,1 0,0 0,0 -0,1 0,4 4,3 34 18 47 26 WZW 1035,7 0,8 0 0,1
19.01.2017 04:00:00 0,3 0,3 0,1 -0,1 0,4 4,3 34 19 50 27 WZW 1035,9 1,1 0 0,0
19.01.2017 03:00:00 -0,4 -0,5 -0,3 -0,1 0,4 4,3 34 18 47 26 WZW 1036,3 0,9 0 0,0
19.01.2017 02:00:00 -0,4 -1,3 -0,6 -0,1 0,4 4,3 36 19 49 26 WZW 1036,5 2,4 0 0,0
19.01.2017 01:00:00 0,2 -1,6 0,0 -0,1 0,4 4,3 35 19 45 24 WZW 1036,3 6 0 0,0
19.01.2017 00:00:00 0,1 -2,3 0,0 -0,1 0,4 4,3 30 16 48 26 WZW 1036,9 8 0 0,0
18.01.2017 23:00:00 0,0 -2,6 -0,1 -0,1 0,4 4,3 34 18 42 23 WZW 1036,7 9 0 0,0
18.01.2017 22:00:00 -0,2 -2,3 -0,3 -0,1 0,4 4,3 29 15 36 20 WZW 1036,9 8 0 0,0
18.01.2017 21:00:00 -0,3 -2,3 -0,4 -0,1 0,4 4,3 29 15 41 22 WZW 1037,2 8 0 0,0
18.01.2017 20:00:00 -0,2 -2,2 -0,4 -0,1 0,4 4,3 34 18 43 23 ZW 1037,3 9 0 0,0
18.01.2017 19:00:00 0,0 -2,2 -0,1 -0,1 0,4 4,3 31 17 39 21 WZW 1037,4 9 0 0,0
18.01.2017 18:00:00 0,1 -1,9 0,0 -0,1 0,4 4,3 31 17 38 21 WZW 1037,4 8 0 0,0
18.01.2017 17:00:00 0,7 -2,0 0,4 -0,1 0,4 4,3 29 16 41 22 WZW 1038,1 16 0 0,0
18.01.2017 16:00:00 0,6 -1,6 0,4 -0,1 0,4 4,3 29 16 39 21 WZW 1038,2 14 0 0,0
18.01.2017 15:00:00 0,5 -1,6 0,4 -0,2 0,4 4,3 26 14 37 20 WZW 1038,0 13 0 0,0
18.01.2017 14:00:00 0,5 -1,4 0,5 -0,2 0,4 4,3 29 15 38 21 WZW 1037,9 11 0 0,0
18.01.2017 13:00:00 0,6 -0,9 0,7 -0,2 0,4 4,3 25 14 34 19 WZW 1038,3 9 0 0,0
18.01.2017 12:00:00 0,2 -0,9 0,3 -0,2 0,4 4,3 26 14 33 18 WZW 1038,5 7 0 0,0
18.01.2017 11:00:00 0,2 -0,7 0,3 -0,3 0,4 4,3 23 13 30 16 WZW 1038,8 5 0 0,0
18.01.2017 10:00:00 0,3 -0,3 0,2 -0,3 0,4 4,3 23 13 29 16 ZW 1038,6 4,0 0 0,0
18.01.2017 09:00:00 0,0 -0,6 -0,1 -0,4 0,4 4,3 22 12 25 14 ZW 1038,5 3,5 0 0,0
18.01.2017 08:00:00 0,0 -0,6 -0,3 -0,4 0,4 4,3 19 11 26 14 ZW 1038,1 3,5 0 0,0
18.01.2017 07:00:00 0,1 -0,7 -0,3 -0,4 0,4 4,3 21 11 29 16 WZW 1038,0 4,5 0 0,0
18.01.2017 06:00:00 -0,1 -1,1 -0,4 -0,4 0,4 4,3 23 12 31 17 WZW 1038,1 4,5 0 0,0
18.01.2017 05:00:00 -0,1 -1,3 -0,4 -0,5 0,4 4,3 22 12 31 17 WZW 1038,3 7 0 0,0
18.01.2017 04:00:00 -0,2 -1,7 -0,5 -0,5 0,4 4,4 25 14 32 17 WZW 1038,4 10 0 0,0
18.01.2017 03:00:00 -0,4 -2,0 -0,7 -0,5 0,4 4,4 22 12 31 17 WZW 1038,5 12 0 0,0
18.01.2017 02:00:00 -0,3 -2,1 -0,6 -0,5 0,4 4,4 21 12 32 17 WZW 1038,7 17 0 0,0
18.01.2017 01:00:00 -0,5 -2,3 -0,9 -0,6 0,4 4,4 22 12 31 17 WZW 1038,5 26 0 0,0
18.01.2017 00:00:00 -1,0 -2,5 -1,3 -0,6 0,4 4,4 24 13 29 15 WZW 1038,4 20 0 0,0
17.01.2017 23:00:00 -0,9 -2,4 -1,2 -0,5 0,4 4,4 21 11 24 13 ZW 1038,5 25 0 0,0
17.01.2017 22:00:00 -0,8 -2,4 -1,1 -0,6 0,4 4,4 21 11 24 13 WZW 1038,8 26 0 0,0
17.01.2017 21:00:00 -0,7 -2,5 -1,3 -0,5 0,4 4,4 15 8 20 11 WZW 1038,8 41 0 0,0
17.01.2017 20:00:00 -0,9 -2,7 -1,7 -0,4 0,4 4,4 13 7 18 10 WZW 1038,7 51 0 0,0
17.01.2017 19:00:00 -0,9 -3,0 -1,9 -0,3 0,4 4,4 13 7 16 9 WZW 1038,5 57 0 0,0
17.01.2017 18:00:00 -0,7 -2,4 -1,5 -0,2 0,4 4,4 13 7 21 11 W 1038,1 59 0 0,0
17.01.2017 17:00:00 -0,1 -3,1 -0,6 -0,2 0,4 4,4 15 8 20 11 W 1038,1 70 0 0,0
17.01.2017 16:00:00 -0,3 -3,2 -1,0 -0,2 0,4 4,4 12 6 17 9 W 1037,8 70 0 0,0
17.01.2017 15:00:00 0,1 -3,8 -0,2 -0,2 0,4 4,4 9 5 16 9 WNW 1037,7 70 0 0,0
17.01.2017 14:00:00 0,3 -3,5 0,2 -0,3 0,4 4,4 9 5 14 8 WNW 1037,5 70 0 0,0
17.01.2017 13:00:00 0,3 -3,6 0,5 -0,3 0,4 4,4 9 5 18 10 NW 1037,4 60 0 0,0
17.01.2017 12:00:00 -0,1 -3,2 0,0 -0,4 0,4 4,4 13 7 20 11 NNW 1037,1 60 0 0,0
17.01.2017 11:00:00 0,0 -2,5 0,0 -0,5 0,4 4,4 6 4 19 10 NNW 1036,9 60 0 0,0
17.01.2017 10:00:00 -0,3 -2,6 -0,5 -0,7 0,4 4,4 8 5 24 13 N 1036,4 60 0 0,0
17.01.2017 09:00:00 0,0 -2,0 -0,4 -0,9 0,4 4,4 10 6 23 12 N 1035,9 60 0 0,0
17.01.2017 08:00:00 -0,1 -2,1 -1,2 -1,1 0,4 4,4 10 6 21 11 NNO 1035,2 60 0 0,0
17.01.2017 07:00:00 0,1 -2,4 -1,5 -0,7 0,4 4,4 13 7 22 12 NO 1034,2 60 0 0,0
17.01.2017 06:00:00 0,2 -2,4 -0,4 -0,6 0,4 4,4 12 7 23 12 NO 1033,9 60 0 0,0
17.01.2017 05:00:00 0,2 -2,5 -0,3 -0,7 0,4 4,4 8 4 19 11 N 1033,4 70 0 0,0
17.01.2017 04:00:00 0,0 -2,6 -0,6 -0,7 0,4 4,4 8 5 21 11 NNO 1033,2 62 0 0,0
17.01.2017 03:00:00 -0,1 -2,6 -1,0 -0,7 0,4 4,4 7 4 19 10 N 1032,7 67 0 0,0
17.01.2017 02:00:00 0,0 -2,3 -0,5 -0,7 0,4 4,4 8 4 18 10 N 1032,4 53 0 0,0
17.01.2017 01:00:00 0,0 -2,3 -0,7 -0,8 0,5 4,4 8 5 22 12 NNO 1031,6 53 0 0,0
17.01.2017 00:00:00 -0,1 -3,3 -0,7 -1,0 0,5 4,4 12 6 23 12 ONO 1031,3 70 0 0,0
16.01.2017 23:00:00 -0,7 -3,4 -1,5 -1,3 0,5 4,4 14 8 26 14 NO 1030,8 53 0 0,0
16.01.2017 22:00:00 -0,7 -3,4 -2,1 -1,3 0,5 4,4 16 9 22 12 NO 1030,2 54 0 0,0
16.01.2017 21:00:00 -0,9 -3,8 -3,0 -1,2 0,5 4,4 14 8 23 12 NO 1029,5 70 0 0,0
16.01.2017 20:00:00 -0,8 -3,8 -3,0 -0,9 0,5 4,4 14 8 21 12 NNO 1028,8 70 0 0,0
16.01.2017 19:00:00 -0,6 -4,1 -2,5 -0,5 0,5 4,4 13 7 24 13 NNO 1028,1 70 0 0,0
16.01.2017 18:00:00 -0,7 -4,6 -2,9 -0,2 0,5 4,4 10 5 24 13 N 1027,5 70 0 0,0
16.01.2017 17:00:00 -0,4 -4,3 -2,0 -0,1 0,5 4,4 10 6 28 15 N 1027,2 70 12 0,0
16.01.2017 16:00:00 -0,1 -3,6 -1,5 -0,1 0,5 4,5 9 5 29 16 N 1026,8 70 60 0,0
16.01.2017 15:00:00 0,6 -3,8 1,4 -0,2 0,5 4,5 12 6 23 12 NNO 1026,2 60 60 0,0
16.01.2017 14:00:00 0,8 -4,0 2,0 -0,2 0,5 4,5 8 5 23 12 N 1025,9 60 60 0,0
16.01.2017 13:00:00 0,3 -4,2 1,7 -0,3 0,5 4,5 11 6 28 15 N 1025,6 70 59 0,0

tt = temperatuur
td = dauwpunt
tt 5cm = temperatuur 5cm
tt -5cm = temperatuur -5cm
tt -20cm = temperatuur -20cm
tt -100cm = temperatuur -100cm
ff = windsnelheid
fx = windstoten
dd = windrichting
ppp = luchtdruk
vv = zicht
sd = Zonneschijnduur
rr = neerslag

Weerstations in de omgeving